Time,TemperatureF,DewpointF,PressureIn,WindDirection,WindDirectionDegrees,WindSpeedMPH,WindSpeedGustMPH,Humidity,HourlyPrecipIn,Conditions,Clouds,dailyrainin,SoftwareType,DateUTC
2013-03-05 00:00:00,29.0,22.7,29.78,North,360,0.0,0.0,77,0.00,,---,0.00,VWS V14.00,2013-03-05 05:00:00,
2013-03-05 00:05:00,29.0,22.4,29.79,NW,315,0.0,0.0,76,0.00,,---,0.00,VWS V14.00,2013-03-05 05:05:00,
2013-03-05 00:10:00,29.0,22.7,29.79,West,270,0.0,0.0,77,0.00,,---,0.00,VWS V14.00,2013-03-05 05:10:00,
2013-03-05 00:15:00,29.0,22.7,29.80,ESE,112,0.0,0.0,77,0.00,,---,0.00,VWS V14.00,2013-03-05 05:15:00,
2013-03-05 00:20:00,29.0,22.4,29.80,SE,135,0.0,0.0,76,0.00,,---,0.00,VWS V14.00,2013-03-05 05:20:00,
2013-03-05 00:25:00,29.0,22.4,29.80,South,180,0.0,0.0,76,0.00,,---,0.00,VWS V14.00,2013-03-05 05:25:00,
2013-03-05 00:30:00,29.0,22.1,29.80,ESE,112,0.0,0.0,75,0.00,,---,0.00,VWS V14.00,2013-03-05 05:30:00,
2013-03-05 00:35:00,29.0,22.1,29.81,SE,135,0.0,0.0,75,0.00,,---,0.00,VWS V14.00,2013-03-05 05:35:00,
2013-03-05 00:40:00,29.0,22.1,29.81,West,270,0.0,0.0,75,0.00,,---,0.00,VWS V14.00,2013-03-05 05:40:00,
2013-03-05 00:45:00,29.0,22.4,29.81,SSW,202,0.0,0.0,76,0.00,,---,0.00,VWS V14.00,2013-03-05 05:45:00,
2013-03-05 00:50:00,29.0,22.4,29.81,SW,225,0.0,1.0,76,0.00,,---,0.00,VWS V14.00,2013-03-05 05:50:00,
2013-03-05 00:55:00,28.0,21.4,29.81,ENE,67,0.0,0.0,76,0.00,,---,0.00,VWS V14.00,2013-03-05 05:55:00,
2013-03-05 01:00:00,28.0,21.7,29.81,SSE,157,0.0,1.0,77,0.00,,---,0.00,VWS V14.00,2013-03-05 06:00:00,
2013-03-05 01:05:00,29.0,22.4,29.82,South,180,0.0,0.0,76,0.00,,---,0.00,VWS V14.00,2013-03-05 06:05:00,
2013-03-05 01:10:00,29.0,22.7,29.82,SSW,202,0.0,0.0,77,0.00,,---,0.00,VWS V14.00,2013-03-05 06:10:00,
2013-03-05 01:15:00,29.0,22.4,29.82,NNE,22,0.0,0.0,76,0.00,,---,0.00,VWS V14.00,2013-03-05 06:15:00,
2013-03-05 01:20:00,29.0,22.1,29.82,South,180,0.0,0.0,75,0.00,,---,0.00,VWS V14.00,2013-03-05 06:20:00,
2013-03-05 01:25:00,29.0,22.1,29.82,NE,45,0.0,0.0,75,0.00,,---,0.00,VWS V14.00,2013-03-05 06:25:00,
2013-03-05 01:30:00,29.0,22.1,29.82,ESE,112,0.0,0.0,75,0.00,,---,0.00,VWS V14.00,2013-03-05 06:30:00,
2013-03-05 01:35:00,29.0,22.1,29.83,ESE,112,0.0,0.0,75,0.00,,---,0.00,VWS V14.00,2013-03-05 06:35:00,
2013-03-05 01:40:00,29.0,22.1,29.83,East,90,0.0,0.0,75,0.00,,---,0.00,VWS V14.00,2013-03-05 06:40:00,
2013-03-05 01:45:00,30.0,23.0,29.83,SSW,202,0.0,0.0,75,0.00,,---,0.00,VWS V14.00,2013-03-05 06:45:00,
2013-03-05 01:50:00,29.0,21.8,29.83,WSW,247,1.0,1.0,74,0.00,,---,0.00,VWS V14.00,2013-03-05 06:50:00,
2013-03-05 01:55:00,29.0,21.8,29.83,SW,225,0.0,0.0,74,0.00,,---,0.00,VWS V14.00,2013-03-05 06:55:00,
2013-03-05 02:00:00,29.0,22.1,29.83,West,270,0.0,0.0,75,0.00,,---,0.00,VWS V14.00,2013-03-05 07:00:00,
2013-03-05 02:05:00,29.0,22.4,29.83,SW,225,0.0,0.0,76,0.00,,---,0.00,VWS V14.00,2013-03-05 07:05:00,
2013-03-05 02:10:00,29.0,22.4,29.83,West,270,0.0,0.0,76,0.00,,---,0.00,VWS V14.00,2013-03-05 07:10:00,
2013-03-05 02:15:00,29.0,22.4,29.83,West,270,0.0,0.0,76,0.00,,---,0.00,VWS V14.00,2013-03-05 07:15:00,
2013-03-05 02:20:00,29.0,22.1,29.83,WSW,247,0.0,0.0,75,0.00,,---,0.00,VWS V14.00,2013-03-05 07:20:00,
2013-03-05 02:25:00,29.0,22.1,29.84,NW,315,0.0,0.0,75,0.00,,---,0.00,VWS V14.00,2013-03-05 07:25:00,
2013-03-05 02:30:00,29.0,22.1,29.84,ENE,67,1.0,2.0,75,0.00,,---,0.00,VWS V14.00,2013-03-05 07:30:00,
2013-03-05 02:35:00,29.0,22.1,29.84,NNE,22,0.0,0.0,75,0.00,,---,0.00,VWS V14.00,2013-03-05 07:35:00,
2013-03-05 02:40:00,29.0,22.4,29.84,SSW,202,0.0,0.0,76,0.00,,---,0.00,VWS V14.00,2013-03-05 07:40:00,
2013-03-05 02:45:00,29.0,22.4,29.84,NE,45,0.0,0.0,76,0.00,,---,0.00,VWS V14.00,2013-03-05 07:45:00,
2013-03-05 02:50:00,29.0,22.4,29.84,East,90,0.0,0.0,76,0.00,,---,0.00,VWS V14.00,2013-03-05 07:50:00,
2013-03-05 02:55:00,29.0,22.7,29.84,South,180,0.0,0.0,77,0.00,,---,0.00,VWS V14.00,2013-03-05 07:55:00,
2013-03-05 03:00:00,29.0,22.7,29.84,ESE,112,0.0,0.0,77,0.00,,---,0.00,VWS V14.00,2013-03-05 08:00:00,
2013-03-05 03:05:00,29.0,22.7,29.84,NE,45,0.0,0.0,77,0.00,,---,0.00,VWS V14.00,2013-03-05 08:05:00,
2013-03-05 03:10:00,29.0,22.7,29.84,ESE,112,0.0,0.0,77,0.00,,---,0.00,VWS V14.00,2013-03-05 08:10:00,
2013-03-05 03:15:00,29.0,22.7,29.84,SW,225,0.0,0.0,77,0.00,,---,0.00,VWS V14.00,2013-03-05 08:15:00,
2013-03-05 03:20:00,29.0,22.7,29.84,SE,135,0.0,0.0,77,0.00,,---,0.00,VWS V14.00,2013-03-05 08:20:00,
2013-03-05 03:25:00,29.0,22.7,29.85,SW,225,0.0,0.0,77,0.00,,---,0.00,VWS V14.00,2013-03-05 08:25:00,
2013-03-05 03:30:00,29.0,22.7,29.85,West,270,0.0,0.0,77,0.00,,---,0.00,VWS V14.00,2013-03-05 08:30:00,
2013-03-05 03:35:00,28.0,21.7,29.86,SW,225,0.0,0.0,77,0.00,,---,0.00,VWS V14.00,2013-03-05 08:35:00,
2013-03-05 03:40:00,28.0,21.7,29.86,North,360,0.0,0.0,77,0.00,,---,0.00,VWS V14.00,2013-03-05 08:40:00,
2013-03-05 03:45:00,28.0,21.7,29.86,North,360,0.0,0.0,77,0.00,,---,0.00,VWS V14.00,2013-03-05 08:45:00,
2013-03-05 03:50:00,28.0,22.0,29.86,North,360,0.0,0.0,78,0.00,,---,0.00,VWS V14.00,2013-03-05 08:50:00,
2013-03-05 03:55:00,28.0,22.0,29.87,North,360,0.0,0.0,78,0.00,,---,0.00,VWS V14.00,2013-03-05 08:55:00,
2013-03-05 04:00:00,28.0,22.0,29.87,North,360,0.0,0.0,78,0.00,,---,0.00,VWS V14.00,2013-03-05 09:00:00,
2013-03-05 04:05:00,28.0,22.0,29.87,North,360,0.0,0.0,78,0.00,,---,0.00,VWS V14.00,2013-03-05 09:05:00,
2013-03-05 04:10:00,28.0,22.0,29.87,North,360,0.0,0.0,78,0.00,,---,0.00,VWS V14.00,2013-03-05 09:10:00,
2013-03-05 04:15:00,28.0,22.0,29.88,NE,45,0.0,0.0,78,0.00,,---,0.00,VWS V14.00,2013-03-05 09:15:00,
2013-03-05 04:20:00,28.0,22.0,29.88,NE,45,0.0,0.0,78,0.00,,---,0.00,VWS V14.00,2013-03-05 09:20:00,
2013-03-05 04:25:00,28.0,22.0,29.88,ENE,67,0.0,0.0,78,0.00,,---,0.00,VWS V14.00,2013-03-05 09:25:00,
2013-03-05 04:30:00,28.0,22.3,29.88,NW,315,0.0,0.0,79,0.00,,---,0.00,VWS V14.00,2013-03-05 09:30:00,
2013-03-05 04:35:00,28.0,22.3,29.89,NW,315,0.0,0.0,79,0.00,,---,0.00,VWS V14.00,2013-03-05 09:35:00,
2013-03-05 04:40:00,28.0,22.3,29.89,NW,315,0.0,0.0,79,0.00,,---,0.00,VWS V14.00,2013-03-05 09:40:00,
2013-03-05 04:45:00,27.0,21.4,29.90,NW,315,0.0,0.0,79,0.00,,---,0.00,VWS V14.00,2013-03-05 09:45:00,
2013-03-05 04:50:00,27.0,21.7,29.90,NW,315,0.0,0.0,80,0.00,,---,0.00,VWS V14.00,2013-03-05 09:50:00,
2013-03-05 04:55:00,27.0,21.7,29.90,NW,315,0.0,0.0,80,0.00,,---,0.00,VWS V14.00,2013-03-05 09:55:00,
2013-03-05 05:00:00,27.0,21.7,29.90,NW,315,0.0,0.0,80,0.00,,---,0.00,VWS V14.00,2013-03-05 10:00:00,
2013-03-05 05:05:00,27.0,22.0,29.90,NW,315,0.0,0.0,81,0.00,,---,0.00,VWS V14.00,2013-03-05 10:05:00,
2013-03-05 05:10:00,27.0,22.2,29.90,SW,225,0.0,0.0,82,0.00,,---,0.00,VWS V14.00,2013-03-05 10:10:00,
2013-03-05 05:15:00,27.0,22.2,29.91,SSW,202,0.0,0.0,82,0.00,,---,0.00,VWS V14.00,2013-03-05 10:15:00,
2013-03-05 05:20:00,27.0,22.2,29.91,SSW,202,0.0,0.0,82,0.00,,---,0.00,VWS V14.00,2013-03-05 10:20:00,
2013-03-05 05:25:00,27.0,22.2,29.91,SSW,202,0.0,0.0,82,0.00,,---,0.00,VWS V14.00,2013-03-05 10:25:00,
2013-03-05 05:30:00,27.0,22.2,29.91,SSW,202,0.0,0.0,82,0.00,,---,0.00,VWS V14.00,2013-03-05 10:30:00,
2013-03-05 05:35:00,27.0,22.2,29.92,SSW,202,0.0,0.0,82,0.00,,---,0.00,VWS V14.00,2013-03-05 10:35:00,
2013-03-05 05:40:00,27.0,22.2,29.92,SSE,157,0.0,0.0,82,0.00,,---,0.00,VWS V14.00,2013-03-05 10:40:00,
2013-03-05 05:45:00,27.0,22.2,29.92,SSE,157,0.0,0.0,82,0.00,,---,0.00,VWS V14.00,2013-03-05 10:45:00,
2013-03-05 05:50:00,28.0,23.2,29.92,NE,45,0.0,0.0,82,0.00,,---,0.00,VWS V14.00,2013-03-05 10:50:00,
2013-03-05 05:55:00,28.0,23.2,29.92,NE,45,0.0,0.0,82,0.00,,---,0.00,VWS V14.00,2013-03-05 10:55:00,
2013-03-05 06:00:00,28.0,22.9,29.92,NE,45,0.0,0.0,81,0.00,,---,0.00,VWS V14.00,2013-03-05 11:00:00,
2013-03-05 06:05:00,28.0,22.9,29.92,NE,45,0.0,0.0,81,0.00,,---,0.00,VWS V14.00,2013-03-05 11:05:00,
2013-03-05 06:10:00,28.0,22.6,29.92,NE,45,0.0,0.0,80,0.00,,---,0.00,VWS V14.00,2013-03-05 11:10:00,
2013-03-05 06:15:00,29.0,23.6,29.92,South,180,0.0,0.0,80,0.00,,---,0.00,VWS V14.00,2013-03-05 11:15:00,
2013-03-05 06:20:00,29.0,23.3,29.92,South,180,0.0,0.0,79,0.00,,---,0.00,VWS V14.00,2013-03-05 11:20:00,
2013-03-05 06:25:00,29.0,23.3,29.93,South,180,0.0,0.0,79,0.00,,---,0.00,VWS V14.00,2013-03-05 11:25:00,
2013-03-05 06:30:00,29.0,23.0,29.93,WSW,247,0.0,0.0,78,0.00,,---,0.00,VWS V14.00,2013-03-05 11:30:00,
2013-03-05 06:35:00,29.0,23.0,29.93,WSW,247,0.0,0.0,78,0.00,,---,0.00,VWS V14.00,2013-03-05 11:35:00,
2013-03-05 06:40:00,29.0,23.0,29.93,WSW,247,0.0,0.0,78,0.00,,---,0.00,VWS V14.00,2013-03-05 11:40:00,
2013-03-05 06:45:00,30.0,24.0,29.93,SSW,202,0.0,0.0,78,0.00,,---,0.00,VWS V14.00,2013-03-05 11:45:00,
2013-03-05 06:50:00,30.0,24.0,29.93,SSW,202,0.0,0.0,78,0.00,,---,0.00,VWS V14.00,2013-03-05 11:50:00,
2013-03-05 06:55:00,30.0,24.0,29.94,WNW,292,0.0,0.0,78,0.00,,---,0.00,VWS V14.00,2013-03-05 11:55:00,
2013-03-05 07:00:00,30.0,24.0,29.94,WNW,292,0.0,0.0,78,0.00,,---,0.00,VWS V14.00,2013-03-05 12:00:00,
2013-03-05 07:05:00,30.0,24.0,29.93,WNW,292,0.0,0.0,78,0.00,,---,0.00,VWS V14.00,2013-03-05 12:05:00,
2013-03-05 07:10:00,30.0,24.0,29.93,South,180,0.0,0.0,78,0.00,,---,0.00,VWS V14.00,2013-03-05 12:10:00,
2013-03-05 07:15:00,31.0,25.0,29.94,ESE,112,0.0,0.0,78,0.00,,---,0.00,VWS V14.00,2013-03-05 12:15:00,
2013-03-05 07:20:00,31.0,24.6,29.94,ESE,112,0.0,0.0,77,0.00,,---,0.00,VWS V14.00,2013-03-05 12:20:00,
2013-03-05 07:25:00,31.0,24.6,29.94,North,360,2.0,2.0,77,0.00,,---,0.00,VWS V14.00,2013-03-05 12:25:00,
2013-03-05 07:30:00,31.0,24.3,29.94,North,360,0.0,0.0,76,0.00,,---,0.00,VWS V14.00,2013-03-05 12:30:00,
2013-03-05 07:35:00,32.0,25.3,29.94,East,90,0.0,0.0,76,0.00,,---,0.00,VWS V14.00,2013-03-05 12:35:00,
2013-03-05 07:40:00,32.0,25.0,29.94,East,90,0.0,0.0,75,0.00,,---,0.00,VWS V14.00,2013-03-05 12:40:00,
2013-03-05 07:45:00,32.0,25.0,29.94,ESE,112,0.0,0.0,75,0.00,,---,0.00,VWS V14.00,2013-03-05 12:45:00,
2013-03-05 07:50:00,32.0,24.3,29.94,East,90,0.0,0.0,73,0.00,,---,0.00,VWS V14.00,2013-03-05 12:50:00,
2013-03-05 07:55:00,33.0,25.0,29.94,ESE,112,0.0,0.0,72,0.00,,---,0.00,VWS V14.00,2013-03-05 12:55:00,
2013-03-05 08:00:00,33.0,25.0,29.94,SSW,202,0.0,1.0,72,0.00,,---,0.00,VWS V14.00,2013-03-05 13:00:00,
2013-03-05 08:05:00,33.0,24.3,29.95,ESE,112,1.0,1.0,70,0.00,,---,0.00,VWS V14.00,2013-03-05 13:05:00,
2013-03-05 08:10:00,33.0,24.0,29.95,East,90,0.0,0.0,69,0.00,,---,0.00,VWS V14.00,2013-03-05 13:10:00,
2013-03-05 08:15:00,33.0,24.0,29.95,East,90,0.0,0.0,69,0.00,,---,0.00,VWS V14.00,2013-03-05 13:15:00,
2013-03-05 08:20:00,34.0,24.9,29.95,SE,135,0.0,0.0,69,0.00,,---,0.00,VWS V14.00,2013-03-05 13:20:00,
2013-03-05 08:25:00,34.0,25.3,29.95,SSE,157,0.0,0.0,70,0.00,,---,0.00,VWS V14.00,2013-03-05 13:25:00,
2013-03-05 08:30:00,34.0,24.9,29.95,SSW,202,0.0,0.0,69,0.00,,---,0.00,VWS V14.00,2013-03-05 13:30:00,
2013-03-05 08:35:00,34.0,24.6,29.95,SE,135,0.0,0.0,68,0.00,,---,0.00,VWS V14.00,2013-03-05 13:35:00,
2013-03-05 08:40:00,34.0,24.6,29.95,NNE,22,0.0,0.0,68,0.00,,---,0.00,VWS V14.00,2013-03-05 13:40:00,
2013-03-05 08:45:00,35.0,25.2,29.95,East,90,0.0,0.0,67,0.00,,---,0.00,VWS V14.00,2013-03-05 13:45:00,
2013-03-05 08:50:00,35.0,25.2,29.95,East,90,1.0,2.0,67,0.00,,---,0.00,VWS V14.00,2013-03-05 13:50:00,
2013-03-05 08:55:00,36.0,25.8,29.95,ESE,112,0.0,0.0,66,0.00,,---,0.00,VWS V14.00,2013-03-05 13:55:00,
2013-03-05 09:00:00,36.0,25.8,29.95,East,90,0.0,0.0,66,0.00,,---,0.00,VWS V14.00,2013-03-05 14:00:00,
2013-03-05 09:05:00,36.0,25.0,29.95,East,90,2.0,2.0,64,0.00,,---,0.00,VWS V14.00,2013-03-05 14:05:00,
2013-03-05 09:10:00,36.0,25.4,29.95,SW,225,0.0,0.0,65,0.00,,---,0.00,VWS V14.00,2013-03-05 14:10:00,
2013-03-05 09:15:00,36.0,25.4,29.94,South,180,0.0,0.0,65,0.00,,---,0.00,VWS V14.00,2013-03-05 14:15:00,
2013-03-05 09:20:00,37.0,26.0,29.94,NE,45,0.0,0.0,64,0.00,,---,0.00,VWS V14.00,2013-03-05 14:20:00,
2013-03-05 09:25:00,37.0,25.6,29.94,NE,45,0.0,0.0,63,0.00,,---,0.00,VWS V14.00,2013-03-05 14:25:00,
2013-03-05 09:30:00,37.0,25.2,29.94,East,90,0.0,0.0,62,0.00,,---,0.00,VWS V14.00,2013-03-05 14:30:00,
2013-03-05 09:35:00,37.0,25.2,29.94,South,180,0.0,0.0,62,0.00,,---,0.00,VWS V14.00,2013-03-05 14:35:00,
2013-03-05 09:40:00,38.0,25.8,29.94,ENE,67,0.0,0.0,61,0.00,,---,0.00,VWS V14.00,2013-03-05 14:40:00,
2013-03-05 09:45:00,38.0,25.8,29.95,ENE,67,0.0,0.0,61,0.00,,---,0.00,VWS V14.00,2013-03-05 14:45:00,
2013-03-05 09:50:00,38.0,25.8,29.95,ENE,67,0.0,0.0,61,0.00,,---,0.00,VWS V14.00,2013-03-05 14:50:00,
2013-03-05 09:54:00,38.0,25.4,29.94,WSW,247,0.0,0.0,60,0.00,,---,0.00,VWS V14.00,2013-03-05 14:54:00,
2013-03-05 09:59:00,39.0,26.3,29.94,SE,135,0.0,0.0,60,0.00,,---,0.00,VWS V14.00,2013-03-05 14:59:00,
2013-03-05 10:04:00,39.0,25.9,29.94,SW,225,0.0,0.0,59,0.00,,---,0.00,VWS V14.00,2013-03-05 15:04:00,
2013-03-05 10:09:00,40.0,26.8,29.94,WNW,292,0.0,0.0,59,0.00,,---,0.00,VWS V14.00,2013-03-05 15:09:00,
2013-03-05 10:14:00,40.0,25.6,29.93,NE,45,0.0,3.0,56,0.00,,---,0.00,VWS V14.00,2013-03-05 15:14:00,
2013-03-05 10:19:00,41.0,26.5,29.93,ENE,67,0.0,0.0,56,0.00,,---,0.00,VWS V14.00,2013-03-05 15:19:00,
2013-03-05 10:24:00,40.0,26.0,29.93,WSW,247,0.0,0.0,57,0.00,,---,0.00,VWS V14.00,2013-03-05 15:24:00,
2013-03-05 10:29:00,41.0,26.5,29.93,NNE,22,0.0,2.0,56,0.00,,---,0.00,VWS V14.00,2013-03-05 15:29:00,
2013-03-05 10:34:00,42.0,27.5,29.92,NE,45,0.0,0.0,56,0.00,,---,0.00,VWS V14.00,2013-03-05 15:34:00,
2013-03-05 10:39:00,42.0,27.0,29.92,WNW,292,0.0,0.0,55,0.00,,---,0.00,VWS V14.00,2013-03-05 15:39:00,
2013-03-05 10:44:00,43.0,26.6,29.91,East,90,0.0,0.0,52,0.00,,---,0.00,VWS V14.00,2013-03-05 15:44:00,
2013-03-05 10:49:00,43.0,26.6,29.91,ENE,67,0.0,0.0,52,0.00,,---,0.00,VWS V14.00,2013-03-05 15:49:00,
2013-03-05 10:54:00,44.0,28.0,29.90,East,90,0.0,0.0,53,0.00,,---,0.00,VWS V14.00,2013-03-05 15:54:00,
2013-03-05 10:59:00,44.0,26.6,29.90,East,90,2.0,3.0,50,0.00,,---,0.00,VWS V14.00,2013-03-05 15:59:00,
2013-03-05 11:04:00,44.0,26.1,29.90,NE,45,0.0,3.0,49,0.00,,---,0.00,VWS V14.00,2013-03-05 16:04:00,
2013-03-05 11:09:00,44.0,27.5,29.90,South,180,0.0,1.0,52,0.00,,---,0.00,VWS V14.00,2013-03-05 16:09:00,
2013-03-05 11:14:00,44.0,26.6,29.90,West,270,1.0,2.0,50,0.00,,---,0.00,VWS V14.00,2013-03-05 16:14:00,
2013-03-05 11:19:00,44.0,26.6,29.90,NW,315,0.0,0.0,50,0.00,,---,0.00,VWS V14.00,2013-03-05 16:19:00,
2013-03-05 11:24:00,45.0,28.0,29.90,NW,315,0.0,0.0,51,0.00,,---,0.00,VWS V14.00,2013-03-05 16:24:00,
2013-03-05 11:29:00,45.0,27.5,29.90,SSW,202,1.0,3.0,50,0.00,,---,0.00,VWS V14.00,2013-03-05 16:29:00,
2013-03-05 11:34:00,45.0,27.5,29.90,West,270,0.0,0.0,50,0.00,,---,0.00,VWS V14.00,2013-03-05 16:34:00,
2013-03-05 11:39:00,45.0,28.0,29.90,NE,45,0.0,0.0,51,0.00,,---,0.00,VWS V14.00,2013-03-05 16:39:00,
2013-03-05 11:44:00,45.0,27.5,29.90,North,360,0.0,0.0,50,0.00,,---,0.00,VWS V14.00,2013-03-05 16:44:00,
2013-03-05 11:49:00,45.0,26.5,29.90,NE,45,0.0,3.0,48,0.00,,---,0.00,VWS V14.00,2013-03-05 16:49:00,
2013-03-05 11:54:00,45.0,27.5,29.90,NE,45,0.0,2.0,50,0.00,,---,0.00,VWS V14.00,2013-03-05 16:54:00,
2013-03-05 11:59:00,45.0,27.5,29.90,South,180,0.0,0.0,50,0.00,,---,0.00,VWS V14.00,2013-03-05 16:59:00,
2013-03-05 12:04:00,46.0,27.4,29.90,NW,315,0.0,0.0,48,0.00,,---,0.00,VWS V14.00,2013-03-05 17:04:00,
2013-03-05 12:09:00,47.0,29.8,29.90,ENE,67,0.0,0.0,51,0.00,,---,0.00,VWS V14.00,2013-03-05 17:09:00,
2013-03-05 12:14:00,47.0,29.8,29.89,ENE,67,0.0,0.0,51,0.00,,---,0.00,VWS V14.00,2013-03-05 17:14:00,
2013-03-05 12:19:00,47.0,28.3,29.89,WNW,292,0.0,0.0,48,0.00,,---,0.00,VWS V14.00,2013-03-05 17:19:00,
2013-03-05 12:24:00,48.0,27.1,29.89,ESE,112,0.0,0.0,44,0.00,,---,0.00,VWS V14.00,2013-03-05 17:24:00,
2013-03-05 12:29:00,48.0,27.7,29.89,NNW,337,0.0,0.0,45,0.00,,---,0.00,VWS V14.00,2013-03-05 17:29:00,
2013-03-05 12:34:00,48.0,27.1,29.88,ENE,67,0.0,0.0,44,0.00,,---,0.00,VWS V14.00,2013-03-05 17:34:00,
2013-03-05 12:39:00,48.0,28.8,29.88,East,90,0.0,0.0,47,0.00,,---,0.00,VWS V14.00,2013-03-05 17:39:00,
2013-03-05 12:44:00,48.0,28.2,29.88,NE,45,0.0,0.0,46,0.00,,---,0.00,VWS V14.00,2013-03-05 17:44:00,
2013-03-05 12:49:00,50.0,29.0,29.88,North,360,0.0,0.0,44,0.00,,---,0.00,VWS V14.00,2013-03-05 17:49:00,
2013-03-05 12:54:00,51.0,27.5,29.88,NE,45,0.0,0.0,40,0.00,,---,0.00,VWS V14.00,2013-03-05 17:54:00,
2013-03-05 12:59:00,50.0,29.0,29.88,ENE,67,0.0,0.0,44,0.00,,---,0.00,VWS V14.00,2013-03-05 17:59:00,
2013-03-05 13:04:00,51.0,29.9,29.87,SSW,202,0.0,0.0,44,0.00,,---,0.00,VWS V14.00,2013-03-05 18:04:00,
2013-03-05 13:09:00,52.0,31.9,29.87,ESE,112,0.0,0.0,46,0.00,,---,0.00,VWS V14.00,2013-03-05 18:09:00,
2013-03-05 13:14:00,51.0,26.9,29.87,ESE,112,0.0,0.0,39,0.00,,---,0.00,VWS V14.00,2013-03-05 18:14:00,
2013-03-05 13:19:00,50.0,28.4,29.87,SSW,202,0.0,0.0,43,0.00,,---,0.00,VWS V14.00,2013-03-05 18:19:00,
2013-03-05 13:24:00,49.0,26.9,29.88,SW,225,0.0,0.0,42,0.00,,---,0.00,VWS V14.00,2013-03-05 18:24:00,
2013-03-05 13:29:00,49.0,26.9,29.88,NNE,22,0.0,3.0,42,0.00,,---,0.00,VWS V14.00,2013-03-05 18:29:00,
2013-03-05 13:34:00,50.0,28.4,29.87,NE,45,0.0,0.0,43,0.00,,---,0.00,VWS V14.00,2013-03-05 18:34:00,
2013-03-05 13:39:00,51.0,29.3,29.87,West,270,0.0,0.0,43,0.00,,---,0.00,VWS V14.00,2013-03-05 18:39:00,
2013-03-05 13:44:00,50.0,26.6,29.88,East,90,0.0,2.0,40,0.00,,---,0.00,VWS V14.00,2013-03-05 18:44:00,
2013-03-05 13:49:00,48.0,25.4,29.88,NE,45,1.0,4.0,41,0.00,,---,0.00,VWS V14.00,2013-03-05 18:49:00,
2013-03-05 13:54:00,48.0,27.7,29.88,ENE,67,0.0,0.0,45,0.00,,---,0.00,VWS V14.00,2013-03-05 18:54:00,
2013-03-05 13:59:00,48.0,27.1,29.88,ENE,67,0.0,0.0,44,0.00,,---,0.00,VWS V14.00,2013-03-05 18:59:00,
2013-03-05 14:04:00,48.0,28.2,29.90,NNW,337,0.0,0.0,46,0.00,,---,0.00,VWS V14.00,2013-03-05 19:04:00,
2013-03-05 14:09:00,47.0,26.8,29.90,East,90,0.0,0.0,45,0.00,,---,0.00,VWS V14.00,2013-03-05 19:09:00,
2013-03-05 14:14:00,47.0,26.8,29.90,ENE,67,0.0,0.0,45,0.00,,---,0.00,VWS V14.00,2013-03-05 19:14:00,
2013-03-05 14:19:00,47.0,27.3,29.90,East,90,0.0,0.0,46,0.00,,---,0.00,VWS V14.00,2013-03-05 19:19:00,
2013-03-05 14:24:00,47.0,28.9,29.91,East,90,0.0,0.0,49,0.00,,---,0.00,VWS V14.00,2013-03-05 19:24:00,
2013-03-05 14:29:00,46.0,27.4,29.91,SSW,202,0.0,0.0,48,0.00,,---,0.00,VWS V14.00,2013-03-05 19:29:00,
2013-03-05 14:34:00,46.0,26.9,29.92,West,270,0.0,4.0,47,0.00,,---,0.00,VWS V14.00,2013-03-05 19:34:00,
2013-03-05 14:39:00,45.0,26.5,29.92,East,90,0.0,0.0,48,0.00,,---,0.00,VWS V14.00,2013-03-05 19:39:00,
2013-03-05 14:44:00,45.0,27.0,29.92,NE,45,0.0,0.0,49,0.00,,---,0.00,VWS V14.00,2013-03-05 19:44:00,
2013-03-05 14:49:00,45.0,26.5,29.92,ENE,67,0.0,0.0,48,0.00,,---,0.00,VWS V14.00,2013-03-05 19:49:00,
2013-03-05 14:54:00,45.0,27.5,29.93,ENE,67,0.0,0.0,50,0.00,,---,0.00,VWS V14.00,2013-03-05 19:54:00,
2013-03-05 14:59:00,45.0,27.5,29.93,NE,45,0.0,0.0,50,0.00,,---,0.00,VWS V14.00,2013-03-05 19:59:00,
2013-03-05 15:04:00,45.0,26.5,29.93,ENE,67,0.0,0.0,48,0.00,,---,0.00,VWS V14.00,2013-03-05 20:04:00,
2013-03-05 15:09:00,44.0,26.6,29.93,NE,45,0.0,0.0,50,0.00,,---,0.00,VWS V14.00,2013-03-05 20:09:00,
2013-03-05 15:14:00,44.0,27.0,29.94,NE,45,0.0,0.0,51,0.00,,---,0.00,VWS V14.00,2013-03-05 20:14:00,
2013-03-05 15:19:00,44.0,27.0,29.94,SE,135,0.0,0.0,51,0.00,,---,0.00,VWS V14.00,2013-03-05 20:19:00,
2013-03-05 15:24:00,44.0,26.6,29.94,SE,135,0.0,0.0,50,0.00,,---,0.00,VWS V14.00,2013-03-05 20:24:00,
2013-03-05 15:29:00,44.0,27.0,29.94,SE,135,0.0,0.0,51,0.00,,---,0.00,VWS V14.00,2013-03-05 20:29:00,
2013-03-05 15:34:00,44.0,27.0,29.95,SE,135,0.0,0.0,51,0.00,,---,0.00,VWS V14.00,2013-03-05 20:34:00,
2013-03-05 15:39:00,44.0,27.0,29.95,SE,135,0.0,0.0,51,0.00,,---,0.00,VWS V14.00,2013-03-05 20:39:00,
2013-03-05 15:44:00,44.0,27.0,29.95,SE,135,0.0,0.0,51,0.00,,---,0.00,VWS V14.00,2013-03-05 20:44:00,
2013-03-05 15:49:00,44.0,27.5,29.95,SE,135,0.0,0.0,52,0.00,,---,0.00,VWS V14.00,2013-03-05 20:49:00,
2013-03-05 15:54:00,44.0,27.5,29.96,SE,135,0.0,0.0,52,0.00,,---,0.00,VWS V14.00,2013-03-05 20:54:00,
2013-03-05 15:59:00,43.0,26.1,29.96,SE,135,0.0,0.0,51,0.00,,---,0.00,VWS V14.00,2013-03-05 20:59:00,
2013-03-05 16:04:00,43.0,26.6,29.96,SE,135,0.0,0.0,52,0.00,,---,0.00,VWS V14.00,2013-03-05 21:04:00,
2013-03-05 16:09:00,43.0,26.6,29.96,SE,135,0.0,0.0,52,0.00,,---,0.00,VWS V14.00,2013-03-05 21:09:00,
2013-03-05 16:14:00,43.0,26.6,29.97,SE,135,0.0,0.0,52,0.00,,---,0.00,VWS V14.00,2013-03-05 21:14:00,
2013-03-05 16:19:00,43.0,26.6,29.97,SE,135,0.0,0.0,52,0.00,,---,0.00,VWS V14.00,2013-03-05 21:19:00,
2013-03-05 16:24:00,43.0,26.6,29.98,SE,135,0.0,0.0,52,0.00,,---,0.00,VWS V14.00,2013-03-05 21:24:00,
2013-03-05 16:29:00,43.0,26.6,29.98,SE,135,0.0,0.0,52,0.00,,---,0.00,VWS V14.00,2013-03-05 21:29:00,
2013-03-05 16:34:00,43.0,26.6,29.98,SE,135,0.0,0.0,52,0.00,,---,0.00,VWS V14.00,2013-03-05 21:34:00,
2013-03-05 16:39:00,43.0,26.6,29.98,SE,135,0.0,0.0,52,0.00,,---,0.00,VWS V14.00,2013-03-05 21:39:00,
2013-03-05 16:44:00,43.0,27.0,29.99,SE,135,0.0,0.0,53,0.00,,---,0.00,VWS V14.00,2013-03-05 21:44:00,
2013-03-05 16:49:00,43.0,26.6,29.99,SE,135,0.0,0.0,52,0.00,,---,0.00,VWS V14.00,2013-03-05 21:49:00,
2013-03-05 16:54:00,43.0,26.6,29.99,SE,135,0.0,0.0,52,0.00,,---,0.00,VWS V14.00,2013-03-05 21:54:00,
2013-03-05 16:59:00,43.0,27.0,29.99,SE,135,0.0,0.0,53,0.00,,---,0.00,VWS V14.00,2013-03-05 21:59:00,
2013-03-05 17:04:00,42.0,26.6,29.99,SE,135,0.0,0.0,54,0.00,,---,0.00,VWS V14.00,2013-03-05 22:04:00,
2013-03-05 17:09:00,42.0,26.6,29.99,SE,135,0.0,0.0,54,0.00,,---,0.00,VWS V14.00,2013-03-05 22:09:00,
2013-03-05 17:14:00,42.0,27.0,29.99,SE,135,0.0,0.0,55,0.00,,---,0.00,VWS V14.00,2013-03-05 22:14:00,
2013-03-05 17:19:00,41.0,26.5,29.99,SE,135,0.0,0.0,56,0.00,,---,0.00,VWS V14.00,2013-03-05 22:19:00,
2013-03-05 17:24:00,41.0,26.5,30.00,SE,135,0.0,0.0,56,0.00,,---,0.00,VWS V14.00,2013-03-05 22:24:00,
2013-03-05 17:29:00,40.0,26.0,30.00,SE,135,0.0,0.0,57,0.00,,---,0.00,VWS V14.00,2013-03-05 22:29:00,
2013-03-05 17:34:00,40.0,26.4,30.01,SE,135,0.0,0.0,58,0.00,,---,0.00,VWS V14.00,2013-03-05 22:34:00,
2013-03-05 17:39:00,40.0,26.8,30.01,SE,135,0.0,0.0,59,0.00,,---,0.00,VWS V14.00,2013-03-05 22:39:00,
2013-03-05 17:44:00,39.0,26.3,30.01,SE,135,0.0,0.0,60,0.00,,---,0.00,VWS V14.00,2013-03-05 22:44:00,
2013-03-05 17:49:00,39.0,26.3,30.01,SE,135,0.0,0.0,60,0.00,,---,0.00,VWS V14.00,2013-03-05 22:49:00,
2013-03-05 17:54:00,39.0,26.3,30.01,SE,135,0.0,0.0,60,0.00,,---,0.00,VWS V14.00,2013-03-05 22:54:00,
2013-03-05 17:59:00,39.0,26.7,30.01,SE,135,0.0,0.0,61,0.00,,---,0.00,VWS V14.00,2013-03-05 22:59:00,
2013-03-05 18:04:00,38.0,25.8,30.02,SE,135,0.0,0.0,61,0.00,,---,0.00,VWS V14.00,2013-03-05 23:04:00,
2013-03-05 18:09:00,38.0,26.1,30.02,SE,135,0.0,0.0,62,0.00,,---,0.00,VWS V14.00,2013-03-05 23:09:00,
2013-03-05 18:14:00,38.0,26.1,30.03,SE,135,0.0,0.0,62,0.00,,---,0.00,VWS V14.00,2013-03-05 23:14:00,
2013-03-05 18:19:00,38.0,26.5,30.03,SE,135,0.0,0.0,63,0.00,,---,0.00,VWS V14.00,2013-03-05 23:19:00,
2013-03-05 18:24:00,38.0,26.9,30.03,SE,135,0.0,0.0,64,0.00,,---,0.00,VWS V14.00,2013-03-05 23:24:00,
2013-03-05 18:29:00,38.0,26.9,30.03,SE,135,0.0,0.0,64,0.00,,---,0.00,VWS V14.00,2013-03-05 23:29:00,
2013-03-05 18:34:00,38.0,26.9,30.03,SE,135,0.0,0.0,64,0.00,,---,0.00,VWS V14.00,2013-03-05 23:34:00,
2013-03-05 18:39:00,37.0,26.7,30.03,SE,135,0.0,0.0,66,0.00,,---,0.00,VWS V14.00,2013-03-05 23:39:00,
2013-03-05 18:44:00,37.0,26.7,30.03,SE,135,0.0,0.0,66,0.00,,---,0.00,VWS V14.00,2013-03-05 23:44:00,
2013-03-05 18:49:00,37.0,26.7,30.03,SE,135,0.0,0.0,66,0.00,,---,0.00,VWS V14.00,2013-03-05 23:49:00,
2013-03-05 18:54:00,36.0,25.8,30.04,SE,135,0.0,0.0,66,0.00,,---,0.00,VWS V14.00,2013-03-05 23:54:00,
2013-03-05 18:59:00,36.0,26.1,30.04,SE,135,0.0,0.0,67,0.00,,---,0.00,VWS V14.00,2013-03-05 23:59:00,
2013-03-05 19:04:00,35.0,25.5,30.05,SE,135,0.0,0.0,68,0.00,,---,0.00,VWS V14.00,2013-03-06 00:04:00,
2013-03-05 19:09:00,35.0,26.2,30.05,SE,135,0.0,0.0,70,0.00,,---,0.00,VWS V14.00,2013-03-06 00:09:00,
2013-03-05 19:14:00,35.0,26.9,30.05,SE,135,0.0,0.0,72,0.00,,---,0.00,VWS V14.00,2013-03-06 00:14:00,
2013-03-05 19:19:00,35.0,26.9,30.05,SE,135,0.0,0.0,72,0.00,,---,0.00,VWS V14.00,2013-03-06 00:19:00,
2013-03-05 19:24:00,35.0,26.9,30.06,SE,135,0.0,0.0,72,0.00,,---,0.00,VWS V14.00,2013-03-06 00:24:00,
2013-03-05 19:29:00,35.0,27.2,30.06,SE,135,0.0,0.0,73,0.00,,---,0.00,VWS V14.00,2013-03-06 00:29:00,
2013-03-05 19:34:00,34.0,26.3,30.07,SE,135,0.0,0.0,73,0.00,,---,0.00,VWS V14.00,2013-03-06 00:34:00,
2013-03-05 19:39:00,34.0,26.3,30.07,SE,135,0.0,0.0,73,0.00,,---,0.00,VWS V14.00,2013-03-06 00:39:00,
2013-03-05 19:44:00,34.0,26.3,30.07,SE,135,0.0,0.0,73,0.00,,---,0.00,VWS V14.00,2013-03-06 00:44:00,
2013-03-05 19:49:00,33.0,26.3,30.07,SE,135,0.0,0.0,76,0.00,,---,0.00,VWS V14.00,2013-03-06 00:49:00,
2013-03-05 19:54:00,33.0,26.6,30.08,SE,135,0.0,0.0,77,0.00,,---,0.00,VWS V14.00,2013-03-06 00:54:00,
2013-03-05 19:59:00,33.0,26.6,30.08,SE,135,0.0,0.0,77,0.00,,---,0.00,VWS V14.00,2013-03-06 00:59:00,
2013-03-05 20:04:00,33.0,26.6,30.08,SE,135,0.0,0.0,77,0.00,,---,0.00,VWS V14.00,2013-03-06 01:04:00,
2013-03-05 20:09:00,32.0,26.2,30.08,SE,135,0.0,0.0,79,0.00,,---,0.00,VWS V14.00,2013-03-06 01:09:00,
2013-03-05 20:14:00,32.0,26.5,30.08,SE,135,0.0,0.0,80,0.00,,---,0.00,VWS V14.00,2013-03-06 01:14:00,
2013-03-05 20:19:00,32.0,26.5,30.08,SE,135,0.0,0.0,80,0.00,,---,0.00,VWS V14.00,2013-03-06 01:19:00,
2013-03-05 20:24:00,33.0,26.9,30.08,SE,135,0.0,0.0,78,0.00,,---,0.00,VWS V14.00,2013-03-06 01:24:00,
2013-03-05 20:29:00,32.0,26.5,30.08,SE,135,0.0,0.0,80,0.00,,---,0.00,VWS V14.00,2013-03-06 01:29:00,
2013-03-05 20:34:00,32.0,26.5,30.08,SE,135,0.0,0.0,80,0.00,,---,0.00,VWS V14.00,2013-03-06 01:34:00,
2013-03-05 20:39:00,32.0,26.5,30.08,SE,135,0.0,0.0,80,0.00,,---,0.00,VWS V14.00,2013-03-06 01:39:00,
2013-03-05 20:44:00,32.0,26.8,30.08,SE,135,0.0,0.0,81,0.00,,---,0.00,VWS V14.00,2013-03-06 01:44:00,
2013-03-05 20:49:00,32.0,27.1,30.08,SE,135,0.0,0.0,82,0.00,,---,0.00,VWS V14.00,2013-03-06 01:49:00,
2013-03-05 20:54:00,32.0,27.1,30.07,SE,135,0.0,0.0,82,0.00,,---,0.00,VWS V14.00,2013-03-06 01:54:00,
2013-03-05 20:59:00,32.0,27.4,30.07,SE,135,0.0,0.0,83,0.00,,---,0.00,VWS V14.00,2013-03-06 01:59:00,
2013-03-05 21:04:00,32.0,27.4,30.07,SE,135,0.0,0.0,83,0.00,,---,0.00,VWS V14.00,2013-03-06 02:04:00,
2013-03-05 21:09:00,32.0,27.4,30.07,SE,135,0.0,0.0,83,0.00,,---,0.00,VWS V14.00,2013-03-06 02:09:00,
2013-03-05 21:14:00,32.0,27.7,30.07,SE,135,0.0,0.0,84,0.00,,---,0.00,VWS V14.00,2013-03-06 02:14:00,
2013-03-05 21:19:00,32.0,27.7,30.07,SE,135,0.0,0.0,84,0.00,,---,0.00,VWS V14.00,2013-03-06 02:19:00,
2013-03-05 21:24:00,33.0,28.1,30.07,SE,135,0.0,0.0,82,0.00,,---,0.00,VWS V14.00,2013-03-06 02:24:00,
2013-03-05 21:29:00,33.0,28.4,30.07,SE,135,0.0,0.0,83,0.00,,---,0.00,VWS V14.00,2013-03-06 02:29:00,
2013-03-05 21:34:00,33.0,28.1,30.07,SE,135,0.0,0.0,82,0.00,,---,0.00,VWS V14.00,2013-03-06 02:34:00,
2013-03-05 21:39:00,33.0,28.1,30.07,SE,135,0.0,0.0,82,0.00,,---,0.00,VWS V14.00,2013-03-06 02:39:00,
2013-03-05 21:44:00,33.0,28.4,30.07,SE,135,0.0,0.0,83,0.00,,---,0.00,VWS V14.00,2013-03-06 02:44:00,
2013-03-05 21:49:00,33.0,28.1,30.07,SE,135,0.0,0.0,82,0.00,,---,0.00,VWS V14.00,2013-03-06 02:49:00,
2013-03-05 21:54:00,32.0,27.4,30.08,SE,135,0.0,0.0,83,0.00,,---,0.00,VWS V14.00,2013-03-06 02:54:00,
2013-03-05 21:59:00,32.0,27.7,30.08,SE,135,0.0,0.0,84,0.00,,---,0.00,VWS V14.00,2013-03-06 02:59:00,
2013-03-05 22:04:00,32.0,28.0,30.08,SE,135,0.0,0.0,85,0.00,,---,0.00,VWS V14.00,2013-03-06 03:04:00,
2013-03-05 22:09:00,32.0,28.0,30.08,SE,135,0.0,0.0,85,0.00,,---,0.00,VWS V14.00,2013-03-06 03:09:00,
2013-03-05 22:14:00,32.0,28.0,30.08,SE,135,0.0,0.0,85,0.00,,---,0.00,VWS V14.00,2013-03-06 03:14:00,
2013-03-05 22:19:00,32.0,28.3,30.08,SE,135,0.0,0.0,86,0.00,,---,0.00,VWS V14.00,2013-03-06 03:19:00,
2013-03-05 22:24:00,33.0,29.0,30.08,SE,135,0.0,0.0,85,0.00,,---,0.00,VWS V14.00,2013-03-06 03:24:00,
2013-03-05 22:29:00,33.0,29.0,30.08,SE,135,0.0,0.0,85,0.00,,---,0.00,VWS V14.00,2013-03-06 03:29:00,
2013-03-05 22:34:00,33.0,29.0,30.08,SE,135,0.0,0.0,85,0.00,,---,0.00,VWS V14.00,2013-03-06 03:34:00,
2013-03-05 22:39:00,33.0,29.3,30.08,SE,135,0.0,0.0,86,0.00,,---,0.00,VWS V14.00,2013-03-06 03:39:00,
2013-03-05 22:44:00,33.0,29.3,30.09,SE,135,0.0,0.0,86,0.00,,---,0.00,VWS V14.00,2013-03-06 03:44:00,
2013-03-05 22:49:00,33.0,29.3,30.09,SE,135,0.0,0.0,86,0.00,,---,0.00,VWS V14.00,2013-03-06 03:49:00,
2013-03-05 22:54:00,33.0,29.3,30.09,SE,135,0.0,0.0,86,0.00,,---,0.00,VWS V14.00,2013-03-06 03:54:00,
2013-03-05 22:59:00,33.0,29.3,30.09,SE,135,0.0,0.0,86,0.00,,---,0.00,VWS V14.00,2013-03-06 03:59:00,
2013-03-05 23:04:00,33.0,29.3,30.09,SE,135,0.0,0.0,86,0.00,,---,0.00,VWS V14.00,2013-03-06 04:04:00,
2013-03-05 23:09:00,33.0,29.3,30.09,SE,135,0.0,0.0,86,0.00,,---,0.00,VWS V14.00,2013-03-06 04:09:00,
2013-03-05 23:14:00,33.0,29.3,30.10,SE,135,0.0,0.0,86,0.00,,---,0.00,VWS V14.00,2013-03-06 04:14:00,
2013-03-05 23:19:00,33.0,29.3,30.10,SE,135,0.0,0.0,86,0.00,,---,0.00,VWS V14.00,2013-03-06 04:19:00,
2013-03-05 23:24:00,33.0,29.6,30.10,SE,135,0.0,0.0,87,0.00,,---,0.00,VWS V14.00,2013-03-06 04:24:00,
2013-03-05 23:29:00,33.0,29.6,30.10,SE,135,0.0,0.0,87,0.00,,---,0.00,VWS V14.00,2013-03-06 04:29:00,
2013-03-05 23:34:00,33.0,29.6,30.10,SE,135,0.0,0.0,87,0.00,,---,0.00,VWS V14.00,2013-03-06 04:34:00,
2013-03-05 23:39:00,33.0,29.6,30.10,SE,135,0.0,0.0,87,0.00,,---,0.00,VWS V14.00,2013-03-06 04:39:00,
2013-03-05 23:44:00,33.0,29.8,30.09,SE,135,0.0,0.0,88,0.00,,---,0.00,VWS V14.00,2013-03-06 04:44:00,
2013-03-05 23:49:00,33.0,30.1,30.09,SE,135,0.0,0.0,89,0.00,,---,0.00,VWS V14.00,2013-03-06 04:49:00,
2013-03-05 23:54:00,33.0,30.1,30.09,SE,135,0.0,0.0,89,0.00,,---,0.00,VWS V14.00,2013-03-06 04:54:00,
2013-03-05 23:59:00,33.0,30.1,30.09,SE,135,0.0,0.0,89,0.00,,---,0.00,VWS V14.00,2013-03-06 04:59:00,